Duchifat3 (84101 NORAD) Tracking and Keplerian Element Data

This shows tracking and keplerian element data for the satellite.

Feedback or suggestion? Click here.




ElementValue
Catalog84101
NameDuchifat3
Epoch Orbit0
Epoch Day345.41319444
Epoch Year2019
RAAN148
Inclination37
Eccentricity0.0001442
Argument of Perigee0
Mean Anonmoly140
Mean Motion15.02563222
Decay Rate0
L11 84101U 19345.41319444 .00000000 00000-0 50000-4 0 08
L22 84101 37.0000 148.0000 0001442 0.0000 140.0000 15.02563222 03

Live tracking and technical data element details for Duchifat3 (NORAD 84101). Duchifat3 can be tracked NOW for your location showing map with azimuth and elevation plus other details from your city location.

Track the satellite on the map from your city or location and see movement details for azimuth, elevation, latitude, longitude, range, height, and movement on the map or in text.







IsCatalogInMostPopularTable: catalog: 84101, numindb: 14
Update: records affected: 1



GetName: 84101 Duchifat3

Hit Count: updated at: Mon, 20 Jan 2020 03:41:09 GMT